Location: Arthez
(43.0833°N, 0.2500°W)
Time: 14:50:19
(UTC+00:00)

NOSS 3-1 (A) - Pass Details

Date: 18 December 2023
Orbit: 665 x 1546 km, 63.4° (Epoch: 18 February)

Event Time Altitude Azimuth Distance (km) Brightness Sun altitude
Exits shadow 05:48:42 - 338° (NNW) 2,891 5.6 -17.2°
Reaches altitude 10° 05:49:19 10° 343° (NNW) 2,802 5.6 -17.1°
Maximum altitude 05:52:51 15° 16° (NNE) 2,638 5.7 -16.5°
Drops below altitude 10° 05:56:45 10° 47° (NE) 3,149 6.5 -15.8°
Sets 06:01:29 0° 70° (ENE) 4,315 7.7 -15.0°
